Flag for France Weather past 2 weeks in Biarritz, France

Now
64 °F

Mostly cloudy.


Feels Like: 64 °F
Forecast: 62 / 72 °F
Wind: 5 mph from Northeast

Location: Biarritz Airport

Current Time: Jul 8, 2015 at 9:24:47 AM

Latest Report: Jul 8, 2015 at 9:00 AM


Visibility: N/A

Pressure: 30.18 "Hg

Humidity: 88%

Dew point: 61 °F

Location of BiarritzLocation

Historic Weather in Biarritz — Graph

°F

Biarritz temperature yesterday

Maximum temperature yesterday: 75 °F (at 2:00 PM)
Minimum temperature yesterday: 70 °F (at 3:00 AM)
Average temperature yesterday: 72 °F

Past Weeks' High & Low Weather Summary

 TemperatureHumidityPressure
High100 °F (Jun 30, 3:00 PM)94% (Jun 24, 5:00 AM)30.24 "Hg (Jun 24, 5:00 AM)
Low57 °F (Jun 25, 5:30 AM)31% (Jun 30, 2:30 PM)29.86 "Hg (Jun 30, 4:00 PM)
Average72 °F76%30.10 "Hg
* Reported Jun 23 8:00 AM — Jul 8 8:00 AM, Biarritz, Weather by CustomWeather, © 2015

Note: Actual official high and low records may vary slightly from our data, if they occured in-between our weather recording intervals... More about our weather records

Advertising

Biarritz weather history for previous 24 hours

 ConditionsComfort  
Time TempWeatherWind HumidityBarometerVisibility
8:00 AM
Wed, Jul 8
66 °FRain. Mostly cloudy.10 mph83%30.18 "Hg4 mi
7:30 AM68 °FMostly cloudy.7 mph78%30.15 "HgN/A
7:00 AM68 °FMostly cloudy.8 mph78%30.15 "HgN/A
6:30 AM68 °FPassing clouds.7 mph78%30.15 "HgN/A
5:30 AM68 °FMostly cloudy.7 mph83%30.15 "HgN/A
5:00 AM68 °FMostly cloudy.6 mph88%30.15 "HgN/A
4:30 AM68 °FMostly cloudy.7 mph88%30.15 "HgN/A
4:00 AM68 °FLight rain. Mostly cloudy.3 mph94%30.12 "HgN/A
3:30 AM68 °FLight rain. Mostly cloudy.9 mph94%30.15 "Hg4 mi
3:00 AM68 °FLight rain. Mostly cloudy.3 mph94%30.15 "HgN/A
2:30 AM70 °FOvercast.5 mph83%30.15 "HgN/A
2:00 AM70 °FOvercast.3 mph83%30.15 "HgN/A
1:30 AM70 °FOvercast.5 mph83%30.15 "HgN/A
1:00 AM70 °FMostly cloudy.5 mph83%30.15 "HgN/A
12:30 AM70 °FMostly cloudy.2 mph83%30.15 "HgN/A
11:30 PM
Tue, Jul 7
70 °FMostly cloudy.3 mph83%30.15 "HgN/A
11:00 PM70 °FMostly cloudy.3 mph83%30.15 "HgN/A
10:30 PM70 °FOvercast.3 mph83%30.15 "HgN/A
10:00 PM70 °FOvercast.8 mph78%30.15 "HgN/A
9:30 PM72 °FPartly sunny.8 mph73%30.15 "HgN/A
9:00 PM72 °FMostly cloudy.9 mph78%30.12 "HgN/A
8:30 PM72 °FBroken clouds.9 mph78%30.12 "HgN/A
8:00 PM72 °FPartly sunny.9 mph78%30.12 "HgN/A
7:30 PM72 °FPartly sunny.10 mph78%30.12 "HgN/A
7:00 PM73 °FPartly sunny.8 mph74%30.12 "HgN/A
6:30 PM73 °FPartly sunny.10 mph74%30.12 "HgN/A
6:00 PM73 °FPartly sunny.8 mph74%30.12 "HgN/A
5:30 PM73 °FPartly sunny.9 mph74%30.12 "HgN/A
5:00 PM73 °FBroken clouds.10 mph74%30.09 "HgN/A
4:30 PM73 °FPartly sunny.10 mph74%30.09 "HgN/A
4:00 PM75 °FPartly sunny.12 mph69%30.12 "HgN/A
3:30 PM75 °FMostly cloudy.12 mph69%30.12 "HgN/A
3:00 PM73 °FPartly sunny.13 mph78%30.12 "HgN/A
2:30 PM73 °FPartly sunny.13 mph74%30.12 "HgN/A
2:00 PM75 °FPartly sunny.13 mph74%30.09 "HgN/A
1:30 PM73 °FPartly sunny.12 mph74%30.09 "HgN/A
1:00 PM73 °FMostly cloudy.14 mph78%30.09 "HgN/A
12:30 PM72 °FMostly cloudy.16 mph78%30.09 "HgN/A
12:00 PM72 °FPartly sunny.13 mph78%30.09 "HgN/A
11:30 AM73 °FMostly cloudy.15 mph78%30.07 "HgN/A
11:00 AM72 °FMostly cloudy.12 mph78%30.07 "HgN/A
10:30 AM72 °FOvercast.12 mph78%30.07 "HgN/A
10:00 AM72 °FMore clouds than sun.13 mph78%30.07 "HgN/A
9:30 AM70 °FMostly cloudy.12 mph83%30.07 "HgN/A
9:00 AM72 °FPartly sunny.12 mph78%30.04 "HgN/A
Weather by CustomWeather, © 2015

See weather overviewHow to use our weather pages